| time (UTC) | temp F | wind direction | speed knots | gust knots | rain 1hr in | rain 24hr in | rain mn in | humidity % | barometer mb |
| 20260504081345 | 61 | 231 | 4.3 | 8.7 | 0.00 | 0.00 | 0.00 | 60 | 1011.9 |
| 20260504045846 | 62 | 172 | 1.7 | 8.7 | 0.00 | 0.00 | 0.00 | 52 | 1013.6 |
| 20260504044346 | 62 | 182 | 7.8 | 8.7 | 0.00 | 0.00 | 0.00 | 53 | 1013.8 |
| 20260504042844 | 62 | 185 | 3.5 | 8.7 | 0.00 | 0.00 | 0.00 | 53 | 1014.0 |
| 20260504041346 | 62 | 175 | 3.5 | 8.7 | 0.00 | 0.00 | 0.00 | 53 | 1013.9 |
| 20260504035847 | 62 | 219 | 1.7 | 8.7 | 0.00 | 0.00 | 0.00 | 53 | 1014.0 |
| 20260504034345 | 61 | 190 | 2.6 | 8.7 | 0.00 | 0.00 | 0.00 | 54 | 1014.1 |
| 20260504032844 | 61 | 199 | 1.7 | 8.7 | 0.00 | 0.00 | 0.00 | 54 | 1014.4 |
| 20260504031346 | 61 | 181 | 1.7 | 8.7 | 0.00 | 0.00 | 0.00 | 53 | 1014.4 |
| 20260504025845 | 61 | 194 | 2.6 | 8.7 | 0.00 | 0.00 | 0.00 | 53 | 1014.2 |
| 20260504024345 | 61 | 181 | 5.2 | 8.7 | 0.00 | 0.00 | 0.00 | 54 | 1014.1 |
| 20260504022844 | 61 | 159 | 3.5 | 8.7 | 0.00 | 0.00 | 0.00 | 54 | 1014.2 |
| 20260504021346 | 61 | 175 | 2.6 | 8.7 | 0.00 | 0.00 | 0.00 | 54 | 1014.4 |
| 20260504015845 | 61 | 187 | 0.9 | 8.7 | 0.00 | 0.00 | 0.00 | 54 | 1014.3 |
| 20260504014345 | 61 | 205 | 0.9 | 8.7 | 0.00 | 0.00 | 0.00 | 54 | 1014.5 |
| 20260504012845 | 62 | 188 | 2.6 | 8.7 | 0.00 | 0.00 | 0.00 | 51 | 1014.4 |
| 20260504011344 | 63 | 170 | 0.0 | 8.7 | 0.00 | 0.00 | 0.00 | 50 | 1014.3 |
| 20260504005846 | 64 | 172 | 0.0 | 8.7 | 0.00 | 0.00 | 0.00 | 48 | 1014.4 |
| 20260504004345 | 65 | 186 | 1.7 | 8.7 | 0.00 | 0.00 | 0.00 | 47 | 1014.4 |
| 20260504002846 | 65 | 192 | 1.7 | 8.7 | 0.00 | 0.00 | 0.00 | 46 | 1014.5 |
| 20260504001344 | 66 | 207 | 2.6 | 8.7 | 0.00 | 0.00 | 0.00 | 44 | 1014.4 |
| 20260503235846 | 67 | 194 | 5.2 | 8.7 | 0.00 | 0.00 | 0.00 | 43 | 1014.5 |
| 20260503234345 | 67 | 209 | 7.8 | 8.7 | 0.00 | 0.00 | 0.00 | 42 | 1014.6 |
| 20260503232845 | 67 | 180 | 5.2 | 8.7 | 0.00 | 0.00 | 0.00 | 41 | 1014.7 |
| 20260503231344 | 68 | 204 | 1.7 | 8.7 | 0.00 | 0.00 | 0.00 | 41 | 1015.1 |
| 20260503225846 | 68 | 190 | 4.3 | 8.7 | 0.00 | 0.00 | 0.00 | 41 | 1015.3 |
| 20260503224345 | 69 | 169 | 7.8 | 8.7 | 0.00 | 0.00 | 0.00 | 41 | 1015.4 |
| 20260503222845 | 69 | 158 | 8.7 | 8.7 | 0.00 | 0.00 | 0.00 | 40 | 1015.7 |
| 20260503221344 | 69 | 183 | 6.1 | 8.7 | 0.00 | 0.00 | 0.00 | 38 | 1015.9 |
| 20260503215845 | 69 | 182 | 5.2 | 8.7 | 0.00 | 0.00 | 0.00 | 37 | 1016.0 |
| 20260503214345 | 69 | 186 | 4.3 | 8.7 | 0.00 | 0.00 | 0.00 | 40 | 1016.3 |
| 20260503212845 | 69 | 177 | 5.2 | 8.7 | 0.00 | 0.00 | 0.00 | 39 | 1016.3 |
| 20260503211344 | 69 | 173 | 8.7 | 8.7 | 0.00 | 0.00 | 0.00 | 38 | 1016.6 |
| 20260503205844 | 69 | 174 | 5.2 | 8.7 | 0.00 | 0.00 | 0.00 | 39 | 1016.9 |
| 20260503204345 | 69 | 182 | 1.7 | 8.7 | 0.00 | 0.00 | 0.00 | 41 | 1017.2 |
| 20260503202847 | 69 | 176 | 7.0 | 8.7 | 0.00 | 0.00 | 0.00 | 39 | 1017.5 |
| 20260503201344 | 69 | 179 | 3.5 | 8.7 | 0.00 | 0.00 | 0.00 | 39 | 1017.8 |
| 20260503195844 | 69 | 211 | 5.2 | 8.7 | 0.00 | 0.00 | 0.00 | 41 | 1018.3 |
| 20260503194343 | 68 | 265 | 3.5 | 8.7 | 0.00 | 0.00 | 0.00 | 39 | 1018.4 |
| 20260503192845 | 68 | 187 | 3.5 | 8.7 | 0.00 | 0.00 | 0.00 | 41 | 1018.8 |
| 20260503191346 | 68 | 215 | 0.0 | 8.7 | 0.00 | 0.00 | 0.00 | 39 | 1019.1 |
| 20260503182846 | 67 | 201 | 4.3 | 7.8 | 0.00 | 0.00 | 0.00 | 44 | 1020.0 |
| 20260503181345 | 66 | 178 | 1.7 | 7.8 | 0.00 | 0.00 | 0.00 | 45 | 1020.2 |
| 20260503175844 | 66 | 270 | 0.0 | 7.8 | 0.00 | 0.00 | 0.00 | 42 | 1020.5 |
| 20260503174343 | 65 | 180 | 3.5 | 7.8 | 0.00 | 0.00 | 0.00 | 43 | 1020.7 |
| 20260503172846 | 65 | 177 | 6.1 | 7.8 | 0.00 | 0.00 | 0.00 | 44 | 1020.8 |
| 20260503171344 | 64 | 236 | 0.9 | 7.8 | 0.00 | 0.00 | 0.00 | 47 | 1021.0 |